Location: El Centro
(32.7920°N, 115.5620°W)
Time: 21:19:29
(UTC-07:00)

Hamsat - Visible Passes

Search period start: 22 September 2014 00:00
Search period end: 02 October 2014 00:00
Orbit: 594 x 628 km, 97.6° (Epoch: 21 September)

Date Brightness Start Highest point End Pass type
(mag) Time Alt. Az. Time Alt. Az. Time Alt. Az.
22 Sep ? 19:08:41 10° WSW 19:10:34 13° W 19:12:27 10° WNW visible
23 Sep ? 05:23:39 10° E 05:24:10 10° E 05:24:41 10° E visible
24 Sep ? 05:36:12 10° NE 05:38:47 16° E 05:41:21 10° SE visible
25 Sep ? 05:49:58 10° NE 05:53:22 24° E 05:56:45 10° SSE visible
26 Sep ? 06:04:03 10° NNE 06:07:55 36° E 06:11:45 10° SSE visible
28 Sep ? 18:58:56 10° SW 19:01:33 16° W 19:04:11 10° WNW visible
29 Sep ? 19:15:43 10° W 19:16:09 10° W 19:16:35 10° W visible
30 Sep ? 05:27:56 10° ENE 05:29:43 12° E 05:31:29 10° ESE visible
01 Oct ? 05:41:19 10° NE 05:44:18 19° E 05:47:15 10° SE visible
